Orbital Elements at Epoch 2459000.5 (2020-May-31.0) TDB
Reference: JPL 27 (heliocentric ecliptic J2000)
Element | Value | Uncertainty (1-sigma) | Units |
e | .2221430665598305 | 4.007e-08 | |
a | 2.361025718287096 | 8.1601e-09 | au |
q | 1.836540225000174 | 9.3911e-08 | au |
i | 4.348337237025073 | 4.125e-06 | deg |
node | 299.578140454295 | 6.5046e-05 | deg |
peri | 116.2087067580927 | 6.6191e-05 | deg |
M | 340.5552726624806 | 1.0389e-05 | deg |
tp | 2459072.072940558204 (2020-Aug-10.57294056) | 3.8241e-05 | TDB |
period | 1325.102592271193 3.63 | 6.8696e-06 1.881e-08 | d yr |
n | .2716770777596692 | 1.4084e-09 | deg/d |
Q | 2.885511211574018 | 9.9728e-09 | au |
|
| | Orbit Determination Parameters
Additional Information
|